ORBCOMM-X 1 21576U 91050C 12034.95605628 +.00000235 +00000-0 +88407-4 0 08403 2 21576 098.6013 359.0202 0004485 043.9884 316.1659 14.40280898078974 ORBCOMM FM 1 1 23545U 95017A 12034.95828576 +.00001587 +00000-0 +32173-3 0 00363 2 23545 069.9694 014.2227 0011621 285.7440 074.2418 14.63090364894624 ORBCOMM FM 2 1 23546U 95017B 12034.88245108 +.00001556 +00000-0 +31821-3 0 00837 2 23546 069.9769 017.2324 0013067 275.1479 084.8171 14.62722023894615 ORBCOMM FM 8 1 25112U 97084A 12034.72348550 .00000734 00000-0 30355-3 0 256 2 25112 045.0174 145.5194 0010456 209.1427 150.8831 14.35118884738326 ORBCOMM FM 10 1 25113U 97084B 12034.75806197 +.00000819 +00000-0 +33328-3 0 07496 2 25113 045.0189 146.2493 0008029 186.8568 173.2180 14.35108060738324 ORBCOMM FM 11 1 25114U 97084C 12034.75015020 +.00000870 +00000-0 +35107-3 0 06880 2 25114 045.0172 145.8616 0008095 187.1989 172.8732 14.35110006738324 ORBCOMM FM 12 1 25115U 97084D 12034.73327053 +.00000629 +00000-0 +26721-3 0 06852 2 25115 045.0163 145.6888 0007630 191.1073 168.9606 14.35114941738325 ORBCOMM FM 9 1 25116U 97084E 12034.74194073 +.00000701 +00000-0 +29245-3 0 08507 2 25116 045.0173 146.0850 0007265 178.3877 181.6993 14.35097584738328 ORBCOMM FM 5 1 25117U 97084F 12034.70601580 +.00000468 +00000-0 +21173-3 0 07837 2 25117 045.0173 146.4839 0004560 204.9578 155.1058 14.35104793738317 ORBCOMM FM 6 1 25118U 97084G 12035.46381609 .00000775 00000-0 31810-3 0 6681 2 25118 045.0177 142.7787 0004154 213.6619 146.3990 14.35119874738420 ORBCOMM FM 7 1 25119U 97084H 12034.71411307 +.00000675 +00000-0 +28335-3 0 09464 2 25119 045.0178 146.5098 0005493 194.5400 165.5291 14.35112192738312 ORBCOMM FM 3 1 25158U 98007B 12034.77099492 +.00000385 +00000-0 +21209-3 0 06925 2 25158 107.9623 261.7896 0048456 068.4483 292.1803 14.26207078726568 ORBCOMM FM 4 1 25159U 98007C 12034.62482574 +.00000378 +00000-0 +20949-3 0 06716 2 25159 107.9610 261.3007 0044041 069.9393 290.6458 14.26242056726572 ORBCOMM FM 17 1 25413U 98046A 12034.62514845 +.00000648 +00000-0 +31351-3 0 08080 2 25413 044.9966 098.9965 0001414 173.1342 186.9523 14.28153788704093 ORBCOMM FM 18 1 25414U 98046B 12034.60152607 +.00000645 +00000-0 +30382-3 0 08342 2 25414 044.9965 094.0196 0001645 103.5878 256.5150 14.29621625704151 ORBCOMM FM 19 1 25415U 98046C 12034.61087223 +.00000804 +00000-0 +36508-3 0 08764 2 25415 044.9962 094.1909 0000764 085.4234 274.6697 14.29630124704158 ORBCOMM FM 20 1 25416U 98046D 12034.62108945 +.00000716 +00000-0 +33099-3 0 03041 2 25416 044.9965 094.3376 0003371 240.4711 119.5787 14.29617115704110 ORBCOMM FM 16 1 25417U 98046E 12034.63159768 +.00000542 +00000-0 +26374-3 0 09155 2 25417 044.9999 095.4257 0002331 175.9472 184.1402 14.29617872704155 ORBCOMM FM 15 1 25418U 98046F 12034.57222845 +.00000372 +00000-0 +19804-3 0 09595 2 25418 045.0001 095.9603 0002601 153.6565 206.4419 14.29608734704140 ORBCOMM FM 14 1 25419U 98046G 12034.58148395 +.00000163 +00000-0 +11720-3 0 09232 2 25419 045.0000 095.8183 0000965 191.5626 168.5180 14.29614634704141 ORBCOMM FM 13 1 25420U 98046H 12034.59135191 +.00000202 +00000-0 +13236-3 0 08120 2 25420 045.0002 096.1879 0002071 139.8131 220.2869 14.29608498704171 ORBCOMM FM 21 1 25475U 98053A 12034.81842698 +.00000173 +00000-0 +12071-3 0 07896 2 25475 045.0097 178.5021 0002457 048.9068 311.1986 14.29737742697385 ORBCOMM FM 22 1 25476U 98053B 12034.78245641 +.00000656 +00000-0 +30706-3 0 04593 2 25476 045.0092 179.0484 0002411 105.2620 254.8482 14.29760855697364 ORBCOMM FM 23 1 25477U 98053C 12034.83526153 +.00000385 +00000-0 +20251-3 0 07811 2 25477 045.0091 178.4625 0002260 090.1736 269.9366 14.29744317697549 ORBCOMM FM 24 1 25478U 98053D 12034.54631451 .00000297 00000-0 16870-3 0 3672 2 25478 045.0094 180.1313 0001543 137.7565 222.3379 14.29707131697481 ORBCOMM FM 25 1 25479U 98053E 12034.80047717 .00000276 00000-0 16054-3 0 6582 2 25479 045.0092 178.3646 0004000 093.0498 267.0801 14.29753745697510 ORBCOMM FM 26 1 25480U 98053F 12034.94791631 +.00000595 +00000-0 +28290-3 0 07243 2 25480 045.0082 166.7194 0006346 114.8003 245.3503 14.29890568697657 ORBCOMM FM 27 1 25481U 98053G 12034.53785626 .00000444 00000-0 22588-3 0 2495 2 25481 045.0076 179.2462 0001074 134.7511 225.3369 14.29616281697472 ORBCOMM FM 28 1 25482U 98053H 12034.70429798 .00000271 00000-0 15553-3 0 3707 2 25482 045.0105 143.6270 0003897 117.7569 242.3667 14.30748640697946 ORBCOMM FM 30 1 25980U 99065A 12034.28759698 +.00000230 +00000-0 +14301-3 0 02986 2 25980 045.0356 347.9567 0005334 263.3951 096.6289 14.29584602634761 ORBCOMM FM 31 1 25981U 99065B 12034.27296795 +.00000194 +00000-0 +12924-3 0 03934 2 25981 045.0269 345.0332 0005004 270.0817 089.9454 14.29589795634750 ORBCOMM FM 32 1 25982U 99065C 12034.29310045 +.00000508 +00000-0 +24984-3 0 03345 2 25982 045.0243 342.0608 0006836 263.2932 096.7135 14.29794535634798 ORBCOMM FM 33 1 25983U 99065D 12034.93874370 +.00000539 +00000-0 +25186-3 0 03904 2 25983 045.0343 340.7534 0007151 191.2076 168.8610 14.31778562634898 ORBCOMM FM 36 1 25984U 99065E 12034.88870583 +.00000793 +00000-0 +36120-3 0 03453 2 25984 045.0408 346.9042 0001762 165.1444 194.9453 14.29604093634848 ORBCOMM FM 35 1 25985U 99065F 12034.80502690 +.00000468 +00000-0 +23555-3 0 03689 2 25985 045.0443 348.3601 0003826 280.2606 079.7796 14.29590742634831 ORBCOMM FM 34 1 25986U 99065G 12034.86093606 +.00000273 +00000-0 +15979-3 0 03065 2 25986 045.0433 347.5044 0003885 244.6285 115.4156 14.29581036634840 ORBCOMM FM 38 1 33060U 08031A 12034.73875512 +.00000429 +00000-0 +10418-3 0 01198 2 33060 048.4452 260.4357 0006852 150.7668 209.3612 14.69552518194690 ORBCOMM FM 41 1 33061U 08031B 12034.84203774 +.00000399 +00000-0 +99278-4 0 01352 2 33061 048.4480 260.6082 0006039 141.8685 218.2628 14.69508384194717 ORBCOMM FM 29 1 33062U 08031C 12034.84024045 .00000404 00000-0 10078-3 0 1093 2 33062 048.4447 263.1945 0007925 144.0254 216.1147 14.69187099194673 ORBCOMM FM 39 1 33063U 08031D 12034.74028783 +.00000353 +00000-0 +92782-4 0 01272 2 33063 048.4440 265.4210 0009655 136.4555 223.7125 14.68927481194630 ORBCOMM FM 37 1 33064U 08031E 12035.58935676 .00000294 00000-0 82333-4 0 1077 2 33064 048.4442 258.9510 0007789 150.4412 209.6927 14.69204074194794 ORBCOMM FM 40 1 33065U 08031F 12034.73570183 .00000377 00000-0 96669-4 0 957 2 33065 048.4472 265.7760 0008760 143.8629 216.2878 14.69007822194631